Location: Proctor
(47.8934°N, 114.3048°W)
Time: 01:13:27
(UTC+00:00)

Tiros 1 despin weight - Pass Details

Date: 01 July 2024
Orbit: 576 x 620 km, 48.2° (Epoch: 24 July)

Event Time Altitude Azimuth Distance (km) Brightness Sun altitude
Rises 20:51:17 0° 284° (WNW) 2,893 ? 61.5°
Reaches altitude 10° 20:53:37 10° 280° (W) 1,988 ? 61.3°
Maximum altitude 20:58:06 57° 203° (SSW) 732 ? 60.8°
Drops below altitude 10° 21:02:35 10° 125° (SE) 1,980 ? 60.3°
Sets 21:04:54 0° 121° (ESE) 2,880 ? 60.1°
